STARLINK-36946, 68382

Orbit data source: Space-Track

STARLINK-36946, 68382 is a payload satellite owned by SpaceX/Seattle (US) in SSO that was launched on Thu, 26 Mar 2026 UTC via an FALCON 9 launch vehicle from the Air Force Western Test Range (AFWTR). Payload-class satellites include a variety of spacecraft equipped with specific instruments for various scientific and technological missions. These include communications satellites like Starlink; space stations such as the ISS; scientific satellites like the Hubble; Earth observation satellites from companies like Planet Labs, Umbra, and HawkEye 360; GPS; miniature CubeSats for education and research; and military/defense satellites.

Not visible in the next 10 days
Identifier
68382, 2026-063C
Orbit
SSO
Country
Flag of USUS
Related business
Manufacturer
SpaceX/Seattle
Mission
Operational spacecraft
Bus & Motor
STARLINK V2MO, Unknown motor
Mass
575 kg wet, ~530 kg dry
Launch date (UTC)
2026-03-26 (1 week ago)
Launch vehicle
FALCON 9
Launch site
Air Force Western Test Range (AFWTR)
Object type
Payload
Rocket body
Debris
Shape & HBR
Unknown shape, 17.7 m
Radar Cross Section
RCS unknown

Expand to show TLE details & history
Last TLE update: 5 hours ago

TLE from 5 hours ago
0 STARLINK-36946
1 68382U 26063C   26095.50003471 -.01889756  00000-0 -82443-2 0  9995
2 68382  97.2826 236.5024 0001574  60.0505   8.5910 15.87881004  2768
Epoch: 2026-04-05T12:00Z
TLE epoch observation values (Epoch: 2026-04-05T12:00:02.998Z)
Latitude
67.58017°
Longitude
-155.25342°
Altitude
318.907 km
Speed
7.724 km/s
True Right ascension
14h 34m 15s
True Declination
67° 27' 02"
Sunlit
Object was in daylight at epoch
Visualization orbit readout
Latitude
Unknown
Longitude
Unknown
Altitude
Unknown
Speed
Unknown
Apparent Right ascension
Unknown
Apparent Declination
Unknown
Sunlit
N/A
Visualization observer readout
Local Sidereal Time
23:11:06
Azimuth
Unknown
Elevation
Unknown
Doppler factor
Unknown
Orbital elements
Apogee altitude
306.147 km
Perigee altitude
304.043 km
Semi-major axis
6,683.232 km
Eccentricity
0.00016
Inclination
97.2826°
RAAN
236.5024°
Arg. of periapsis
60.0505°
True anomaly
8.59369°
Mean anomaly
8.591°
Eccentric anomaly
8.59235°
Mean motion
3.97249 °/min
Orbital period
90.62 mins
BSTAR
-0.0082443
Loading maneuver chart data...
Computing Atmospheric mass density...
Loading historical data...
Loading historical data...
Loading historical data...
Loading historical data...
Loading historical data...
Loading historical data...
Loading historical data...

Documentation

Showing up to 5 results
|